Wind_Speed
3 2 3 5 7 9 9 10 11 12 10 7 4 4 5 4 4 6 5 4 9 7 7 10 6 5 9 11 10 9 6 7 9 8 7 6 6 6 7 7 8 8 7 8 9 9 10 15 17 9 8 15 23 30 31 31 34 35 35 34 32 32 32 31 30 29 28 27 27 27 27 26 25 24 22 22 23 24 25 25 22 20 22 23 22 21
3 4 7 9 11 11 11 10 10 10 9 7 6 7 6 4 4 7 7 5 7 6 8 7 6 5 10 10 9 9 8 8 10 9 8 8 6 5 6 7 8 5 2 5 8 10 13 16 17 19 23 19 14 20 33 33 34 36 36 36 34 33 34 33 32 32 31 30 30 29 29 29 28 26 24 24 24 24 25 24 22 21 23 23 22 20
1 5 12 12 10 10 10 10 10 9 7 5 6 6 5 4 2 5 4 5 8 6 6 5 7 5 6 6 7 8 9 9 8 10 10 9 8 6 8 8 7 4 3 5 7 8 13 18 19 20 27 27 15 13 25 33 33 35 36 36 36 35 35 34 33 33 32 31 31 30 29 29 29 28 26 24 24 24 25 24 22 22 24 24 23 20
3 8 14 13 9 9 11 12 9 7 6 5 6 4 5 4 1 3 4 3 6 3 2 5 6 2 3 4 3 4 5 5 5 8 7 8 9 9 10 8 6 7 6 6 6 7 11 16 20 19 20 26 23 14 18 29 33 33 36 37 37 37 36 35 35 33 32 31 30 29 28 28 28 28 27 24 24 25 25 24 22 23 25 26 24 20
8 11 11 8 9 10 11 11 8 6 6 5 6 4 5 7 4 4 3 3 2 2 2 5 6 4 3 2 4 2 2 4 5 7 6 7 7 6 7 7 6 7 8 8 8 8 10 13 18 20 19 21 27 22 20 27 34 33 35 37 37 38 37 36 35 33 31 30 29 27 25 24 24 25 25 24 25 26 25 25 24 24 26 27 25 20
12 15 8 6 9 10 10 10 8 8 5 4 5 6 7 10 5 6 6 5 3 4 3 4 5 4 4 2 5 2 3 5 5 7 9 9 6 6 6 7 6 6 6 7 9 9 8 12 15 18 19 20 26 28 26 29 33 31 32 36 37 37 37 36 35 34 32 30 29 28 25 24 23 23 25 27 28 28 27 27 25 25 26 28 26 22
8 13 9 9 10 9 10 10 8 7 3 3 5 6 6 6 4 9 8 5 4 3 4 4 5 2 4 3 5 3 5 7 5 6 8 7 6 6 6 6 5 6 6 5 6 7 7 9 12 14 18 22 26 29 30 29 28 27 29 34 36 35 35 35 35 35 33 31 30 29 28 27 25 24 25 28 30 29 28 28 26 26 26 27 27 25
5 8 6 8 9 6 7 7 7 5 5 4 6 4 4 3 8 11 8 4 3 2 3 3 6 3 2 4 3 1 4 5 5 5 6 5 5 5 5 6 6 6 7 6 5 6 6 8 12 14 18 23 24 26 27 27 26 27 30 34 35 35 35 35 36 36 35 33 31 30 29 27 27 27 27 28 30 29 27 27 27 27 27 26 27 27
4 6 7 7 6 3 4 6 6 5 4 7 6 2 3 4 11 11 8 4 3 3 2 4 3 4 2 4 2 3 3 5 6 7 6 6 7 7 6 6 6 6 6 6 6 6 6 8 13 16 17 19 20 22 26 28 27 28 29 31 32 33 35 36 37 38 37 36 34 31 30 28 27 27 27 28 29 28 27 27 28 27 28 27 27 28
6 7 8 6 3 4 6 7 5 6 3 7 4 2 3 4 7 7 7 5 3 3 3 6 2 4 2 3 2 3 4 6 7 6 5 7 8 8 7 7 7 6 5 4 4 4 6 9 13 15 15 14 15 19 23 24 25 25 22 20 22 26 31 36 38 39 38 37 35 33 31 30 28 27 27 27 27 28 27 27 28 28 28 27 27 29
8 8 5 4 4 6 6 5 5 8 6 3 1 3 5 4 4 4 2 4 4 1 5 6 6 5 1 3 4 4 5 7 7 4 5 6 7 7 6 6 7 6 5 5 4 4 6 9 10 12 12 12 13 16 18 19 21 21 17 18 21 24 27 30 33 38 39 37 35 34 33 32 31 29 29 28 28 29 28 28 29 29 29 28 27 29
7 7 4 4 5 5 4 3 3 3 2 4 2 2 3 4 5 5 4 4 3 2 6 4 4 6 3 4 6 6 7 7 9 7 8 8 7 8 6 5 6 6 6 5 4 4 5 6 6 9 10 11 12 15 17 18 18 17 19 24 26 23 23 24 25 31 35 35 34 33 33 34 33 32 31 31 30 30 30 30 29 29 29 29 27 28
6 6 6 5 5 4 4 2 5 5 4 4 3 4 3 2 4 3 4 2 1 3 6 2 5 4 1 5 6 8 7 8 10 9 9 10 9 9 7 5 5 6 6 5 5 4 5 4 5 9 12 13 14 16 17 16 16 17 21 25 26 26 27 24 21 25 31 33 35 34 32 33 34 33 33 33 33 32 32 31 30 30 30 29 29 28
5 8 7 4 5 3 6 3 2 3 2 1 1 3 4 2 1 2 3 1 1 3 5 2 5 2 3 4 6 8 8 9 9 8 8 10 10 9 7 6 5 5 6 5 4 5 5 4 7 11 13 15 16 17 17 16 17 19 20 22 25 29 31 27 21 24 31 33 35 35 33 33 33 34 34 33 33 33 32 32 31 31 31 30 30 30
2 7 6 4 5 4 6 7 6 4 2 3 4 5 4 3 3 3 3 3 3 2 3 3 3 2 3 3 5 5 5 6 6 5 6 6 6 7 6 5 5 5 5 5 5 5 5 6 10 14 16 18 18 18 18 18 19 20 21 22 24 27 30 30 25 25 30 34 35 34 34 34 33 34 34 33 33 34 33 32 32 32 32 31 30 30
3 6 8 5 5 8 7 5 6 6 1 4 2 5 1 4 5 2 3 5 4 1 2 3 0 3 4 3 2 3 4 4 4 4 5 5 4 5 5 5 5 5 6 5 6 5 5 9 13 15 16 18 19 18 18 18 19 21 21 22 24 25 26 29 29 28 29 30 31 30 31 34 34 33 33 32 32 33 34 33 32 32 32 31 30 29
2 6 7 2 2 9 9 5 6 6 2 1 2 2 4 5 7 4 1 0 4 4 1 1 1 3 2 3 4 4 4 4 4 4 6 5 4 4 5 5 5 5 6 7 7 7 7 8 11 13 15 15 16 17 18 17 18 19 20 20 22 23 23 25 30 32 30 28 27 25 25 29 31 32 33 32 31 32 32 32 32 31 31 31 30 28
3 5 7 1 3 9 8 7 5 6 6 4 2 5 4 1 4 3 1 2 4 3 2 1 2 2 1 1 2 1 3 4 4 4 5 4 5 5 5 4 5 6 7 7 7 7 6 6 8 10 12 12 12 13 14 15 14 15 17 17 19 20 20 22 26 30 30 29 26 23 25 29 30 30 32 32 32 31 31 31 30 31 30 29 29 28
4 3 8 5 4 5 3 4 2 4 2 4 4 3 2 2 2 1 2 0 1 2 1 3 2 2 3 3 4 6 7 6 6 5 5 5 6 6 5 4 5 5 6 6 6 5 4 5 7 9 10 10 9 10 10 11 11 12 12 12 13 15 17 18 19 23 29 30 25 22 26 29 27 29 31 30 30 30 30 30 29 29 30 29 28 28
3 2 5 7 3 0 2 2 2 5 5 2 1 1 1 3 3 2 2 3 3 2 2 1 3 2 5 5 6 9 9 8 7 6 6 7 7 6 5 5 5 6 6 5 5 4 3 4 6 9 10 11 10 9 8 8 9 10 9 9 10 10 11 12 12 15 21 23 22 22 24 25 23 24 29 29 29 29 28 29 29 28 29 28 28 28
1 2 4 6 5 1 2 2 5 5 2 1 2 2 2 1 1 1 0 2 4 4 3 2 1 5 6 4 6 9 9 8 8 8 7 7 6 6 5 6 6 5 5 5 5 4 4 6 8 10 11 12 11 8 7 7 8 9 8 8 10 10 11 13 14 17 18 17 21 23 22 23 21 20 23 26 27 28 27 28 28 28 29 28 28 29
2 3 3 3 4 1 4 5 4 4 4 4 3 2 3 1 1 2 1 2 3 4 4 4 2 6 6 4 6 7 7 7 8 8 7 6 6 6 6 6 5 5 5 5 5 5 5 7 10 11 11 11 10 7 6 8 8 8 7 7 9 10 13 15 17 20 19 19 23 23 19 23 25 21 21 22 24 25 26 27 27 28 28 28 29 28
3 3 2 2 3 4 7 5 1 2 1 5 3 2 2 2 3 3 3 3 2 3 2 3 2 5 6 4 5 5 5 6 7 8 7 5 6 7 6 5 5 5 5 5 5 5 6 8 11 11 9 8 8 6 7 8 8 7 6 5 6 8 13 16 18 20 20 19 22 21 19 21 24 24 22 21 21 22 23 25 26 27 28 28 29 29
1 3 2 3 4 4 6 4 3 4 5 5 1 2 1 1 1 3 4 3 3 2 1 3 1 5 6 2 3 5 5 5 6 7 8 6 5 6 6 6 5 5 5 5 5 5 5 7 8 7 7 7 7 5 6 8 8 7 7 6 6 7 9 13 16 20 21 20 20 22 22 21 22 22 23 23 22 22 22 23 25 26 27 27 28 30
0 2 3 3 4 5 7 7 6 7 4 2 2 3 3 1 4 4 2 4 3 3 4 4 2 6 5 1 3 4 5 6 5 6 8 7 6 6 5 5 5 5 5 5 5 5 5 6 6 5 6 6 5 4 5 7 9 8 8 8 8 8 8 10 12 16 17 18 19 21 22 23 22 21 22 24 24 22 21 22 23 24 26 26 27 28
2 1 4 5 3 1 1 3 4 4 3 2 3 5 6 4 5 2 1 4 2 4 3 5 5 5 4 1 4 5 6 7 5 5 7 7 7 7 6 6 5 5 6 6 6 5 6 5 4 5 5 3 3 3 5 6 7 7 8 8 9 9 9 9 10 12 13 14 15 18 20 22 21 20 21 23 24 23 22 22 23 23 24 25 25 25
4 2 3 7 6 5 6 6 5 1 2 4 7 8 7 6 4 2 2 2 3 3 2 5 7 3 2 5 6 6 6 7 7 6 7 7 7 7 7 7 7 6 6 6 5 5 5 5 5 5 5 1 1 2 4 3 3 5 7 9 10 10 10 10 11 12 14 14 15 18 19 19 19 19 20 21 23 24 25 25 25 24 24 24 24 24
4 1 1 7 6 6 8 8 4 1 2 4 7 9 8 7 6 4 3 4 5 5 3 7 6 6 7 9 9 8 8 7 7 8 9 8 8 7 7 7 8 7 5 4 4 5 6 5 5 5 6 3 1 4 5 4 3 5 8 9 9 11 12 12 12 12 14 15 16 18 19 18 18 19 21 22 23 24 25 26 26 26 24 24 24 24
5 1 4 5 3 5 6 5 1 2 2 3 5 8 8 7 7 5 7 5 7 6 6 7 9 9 9 9 10 11 11 10 9 8 9 9 8 7 7 8 8 8 6 6 6 7 7 6 5 6 6 4 4 6 6 5 3 5 8 9 10 11 12 13 13 13 13 15 17 18 19 20 20 21 22 22 22 22 23 24 24 24 24 25 26 26
3 2 4 3 3 5 6 5 3 5 5 5 6 8 8 7 6 5 7 5 5 7 7 10 13 10 7 9 13 12 9 8 7 7 8 10 9 9 9 9 9 8 7 8 8 7 7 6 6 6 5 5 6 7 7 6 3 4 8 11 11 11 12 12 13 13 14 15 16 18 20 21 21 22 22 21 21 22 23 22 22 23 24 26 27 26
4 4 5 1 1 4 5 2 3 6 6 4 7 8 7 6 7 6 7 7 4 3 2 9 11 7 5 8 11 7 6 7 7 9 10 10 10 10 10 9 9 9 8 8 8 7 6 6 6 5 6 6 8 8 9 7 5 4 8 11 11 11 12 12 13 13 14 15 16 18 20 21 21 21 22 22 22 22 22 22 23 24 24 25 25 25
4 3 5 5 4 5 5 2 5 7 6 5 7 7 6 6 5 5 6 7 5 1 5 7 7 6 7 6 5 5 8 9 9 10 10 9 10 11 10 10 10 9 9 8 7 6 6 6 6 7 8 8 9 10 10 9 8 7 8 10 12 12 12 12 13 13 14 15 16 18 19 19 19 19 19 21 21 19 20 21 22 24 25 25 25 25
2 3 3 3 3 5 6 3 5 6 6 5 5 5 4 5 6 6 6 8 4 5 8 6 7 7 6 6 6 6 8 9 9 10 10 9 10 11 11 10 9 10 9 8 8 8 8 8 9 10 11 11 11 13 12 10 10 10 11 11 11 12 13 13 13 13 13 13 15 17 18 17 17 17 19 21 20 18 20 22 23 24 26 27 27 26
3 2 2 1 1 4 7 4 5 4 2 5 7 5 4 5 5 6 8 10 7 2 5 6 7 6 6 8 9 10 9 9 9 10 10 11 10 10 10 10 9 9 8 8 8 8 8 8 10 12 13 12 12 13 13 11 10 9 10 10 11 13 14 14 13 13 13 13 13 15 16 16 16 17 18 19 19 19 20 22 22 23 25 27 27 28
5 4 3 2 2 3 4 4 4 2 5 7 7 6 6 6 6 7 8 8 7 5 1 7 9 8 8 9 10 11 10 9 9 10 10 11 10 10 9 8 8 8 8 8 8 8 7 8 10 12 13 12 11 11 12 12 9 7 8 9 11 12 13 13 13 12 12 12 13 14 14 15 16 16 17 18 19 19 20 21 23 24 25 26 27 27
6 4 2 1 1 2 1 3 1 6 6 5 6 7 7 6 3 4 6 6 6 7 3 6 10 8 7 7 7 7 8 7 7 7 8 10 10 10 9 8 9 9 10 10 9 10 11 12 15 15 14 13 12 11 13 14 11 9 10 11 11 12 11 11 12 12 12 13 14 14 14 14 15 15 16 17 18 19 20 21 23 25 26 25 26 25
7 4 3 3 3 2 2 2 3 4 6 5 5 4 3 3 4 4 5 5 4 6 5 3 9 8 7 6 5 6 7 7 5 4 6 8 10 10 9 8 9 10 11 12 14 16 18 18 18 16 14 14 14 14 14 14 12 11 12 13 12 12 12 11 12 13 13 13 14 14 14 14 15 15 15 15 16 17 18 19 20 22 22 22 23 24
8 6 5 5 3 3 3 2 2 3 5 5 6 6 4 4 6 4 3 3 6 7 6 3 9 9 7 7 7 7 7 7 5 6 7 7 8 7 7 8 10 11 12 14 15 15 17 18 18 16 15 15 16 15 15 16 14 11 12 13 12 12 12 13 14 14 14 14 14 14 14 13 13 15 15 15 15 16 16 16 17 19 19 19 19 20
4 4 5 4 2 3 4 3 3 4 5 5 6 8 7 7 6 0 3 3 7 8 9 3 11 12 11 11 9 8 7 5 5 7 7 8 8 7 8 9 9 11 15 19 20 19 19 19 18 16 15 16 17 15 15 17 15 13 12 12 11 11 13 14 14 13 13 13 13 13 13 12 12 13 15 15 15 16 15 15 16 17 17 18 18 18
2 3 4 4 3 3 4 3 3 3 3 4 6 8 10 7 2 2 2 6 6 8 10 3 6 8 11 12 10 9 8 7 7 8 9 8 7 8 10 11 11 11 14 17 21 23 22 21 19 17 16 17 18 16 15 15 16 14 13 11 10 11 13 13 12 11 11 11 12 12 13 13 13 14 14 15 15 14 14 13 14 15 16 16 16 16
3 2 1 3 3 3 4 3 3 3 2 4 8 9 10 7 6 3 4 6 4 7 8 4 3 2 5 9 9 8 8 7 7 8 9 9 8 8 10 13 16 17 19 20 22 23 22 22 21 20 19 18 18 16 15 15 15 13 11 10 10 12 12 10 9 9 9 8 9 11 12 13 14 14 14 14 14 13 13 12 11 13 14 15 15 14
3 3 2 2 1 2 3 2 2 3 3 8 10 9 6 3 2 3 4 3 3 6 6 6 7 6 3 2 2 4 6 5 3 7 9 9 10 9 8 10 13 14 17 20 22 23 22 21 20 19 18 18 18 17 16 16 15 12 11 10 11 12 11 9 8 7 8 7 6 7 9 10 12 12 12 12 12 12 13 12 11 10 11 13 14 14
3 3 3 2 1 0 1 2 1 2 4 10 10 6 4 2 3 5 1 1 2 4 7 7 6 5 4 3 3 4 4 4 3 6 8 8 9 9 9 11 12 13 16 19 21 22 22 20 18 19 19 19 19 17 16 17 15 12 12 12 12 10 9 9 7 5 6 6 5 5 7 7 8 9 10 10 10 11 12 12 10 9 9 10 12 12
4 3 2 2 2 1 2 1 1 4 5 8 5 2 1 1 2 3 2 3 4 6 7 7 8 7 5 4 4 5 6 7 4 3 6 7 8 8 8 11 13 14 17 20 21 22 22 21 19 18 19 20 19 17 16 17 16 13 13 12 10 8 8 8 7 6 5 5 5 5 5 6 6 7 8 9 9 10 10 10 10 9 8 9 10 11
3 3 2 4 2 1 2 3 3 4 5 6 4 2 2 3 2 2 4 5 5 6 6 6 8 10 8 6 6 6 6 6 5 3 3 6 7 8 9 11 13 16 18 19 21 22 22 22 21 20 19 19 19 17 16 15 15 14 13 11 10 9 8 7 6 7 7 6 6 6 5 5 7 7 7 8 9 9 10 11 11 11 10 9 10 10
4 6 3 2 2 1 1 2 3 3 4 7 7 5 4 5 5 5 6 6 5 6 6 5 7 10 10 9 8 7 7 6 6 5 3 2 4 6 8 9 12 17 19 19 20 21 22 22 21 20 18 18 17 16 15 14 15 15 13 12 12 11 9 7 6 7 7 7 8 7 6 7 8 7 7 7 7 8 9 9 10 10 10 9 9 10
5 8 6 3 3 3 2 2 4 3 3 6 8 7 7 7 7 5 5 4 4 6 7 5 2 6 9 9 8 8 9 8 7 6 3 3 4 5 8 9 10 16 19 20 22 23 23 22 20 19 18 18 17 16 13 11 14 17 15 13 13 11 10 9 8 8 8 8 9 9 8 8 8 8 8 8 8 7 7 7 8 8 8 9 10 10
4 7 6 4 4 4 4 5 5 4 3 3 4 6 7 7 8 7 4 3 4 4 5 5 3 3 6 8 8 8 9 9 8 7 3 3 6 6 7 9 11 15 19 22 25 26 24 22 20 20 19 17 17 16 13 12 14 15 14 12 12 11 11 10 9 9 9 9 9 10 10 9 9 9 9 9 9 8 7 7 8 8 9 9 10 10
4 5 3 3 4 5 5 5 6 6 5 3 3 4 5 6 7 7 6 4 4 5 6 6 4 4 4 5 7 7 9 9 8 7 6 3 6 7 7 10 13 17 20 23 26 26 25 24 22 22 21 19 18 16 14 14 15 15 13 11 10 11 13 12 10 9 10 11 11 11 11 11 10 10 10 10 9 8 7 7 8 8 8 8 7 8
4 4 3 3 4 5 5 5 5 5 4 4 5 5 6 6 6 7 8 5 2 3 5 5 5 4 3 2 4 5 7 9 9 7 6 4 7 9 9 11 14 16 20 23 25 25 25 25 24 23 22 20 19 17 16 15 15 14 13 10 9 10 12 12 10 9 10 12 13 12 12 13 12 11 11 10 10 9 8 8 8 7 7 7 7 6
3 3 3 4 4 5 7 8 7 5 5 6 6 5 5 5 6 7 8 6 3 2 4 4 1 4 4 3 4 4 6 8 9 8 8 6 7 11 12 13 16 18 20 22 23 22 21 22 23 23 23 22 20 19 17 16 15 14 12 11 9 9 10 10 9 8 8 9 11 13 14 14 14 13 13 12 11 10 10 10 9 8 8 7 7 7
Wind_Direction
155 209 260 222 227 229 225 218 221 236 245 256 271 266 235 183 222 241 236 219 151 143 228 214 186 180 187 193 190 182 182 182 191 198 201 204 197 194 204 205 203 208 208 197 180 157 158 179 188 203 229 207 185 174 171 170 171 173 174 172 173 178 179 180 182 183 185 184 181 180 180 182 184 186 190 190 189 189 186 182 180 177 173 172 173 176
135 207 242 226 226 233 236 236 236 246 255 266 267 267 268 234 232 237 218 190 148 158 235 208 145 202 202 187 190 177 176 194 193 194 203 209 205 202 214 217 214 216 179 159 154 149 155 165 175 171 170 190 218 188 173 173 174 174 176 175 174 176 179 181 184 185 186 187 185 183 183 183 184 184 186 188 188 190 188 185 181 177 176 176 178 180
207 241 247 233 227 238 251 256 253 260 266 261 248 246 265 258 268 277 241 164 161 187 241 180 140 231 225 168 193 187 185 203 198 196 201 199 196 199 212 218 214 192 138 159 164 153 152 159 171 173 168 178 211 220 184 175 175 176 177 177 175 176 179 183 186 187 188 190 189 187 186 185 184 184 184 185 187 187 187 187 185 181 181 182 181 180
209 242 242 232 225 234 250 258 261 274 267 239 236 254 280 265 170 288 285 169 177 189 187 138 114 317 347 94 171 197 200 203 197 208 210 202 197 198 207 204 191 177 159 171 176 159 154 160 172 180 179 176 180 209 206 182 178 180 180 179 178 177 180 182 186 189 190 191 191 191 189 187 186 185 185 186 186 185 186 189 190 187 186 186 183 178
235 246 240 225 220 225 243 259 260 257 258 252 242 237 264 268 226 200 211 162 182 334 42 94 62 346 335 132 178 209 219 181 183 198 211 224 206 187 205 198 175 174 170 171 175 175 171 169 178 185 188 183 178 191 211 195 185 185 183 182 181 181 181 182 185 188 188 187 188 189 188 185 185 184 185 187 185 185 188 190 191 190 189 188 184 176
250 253 248 233 226 220 233 252 245 221 235 299 263 223 236 263 246 158 149 128 78 331 289 94 70 314 313 230 204 204 180 181 190 193 201 220 203 174 200 198 169 168 180 183 177 182 186 178 181 185 188 193 189 192 208 206 193 188 185 184 185 183 182 183 184 185 185 185 185 185 184 181 181 183 186 189 186 185 188 189 191 191 191 189 185 176
251 252 238 228 229 212 215 240 239 198 159 307 260 217 225 252 197 143 134 117 110 258 261 105 116 249 315 264 227 206 178 188 204 204 203 208 195 186 202 198 175 169 189 204 189 184 189 184 183 190 196 200 201 202 211 211 199 191 189 187 187 185 184 185 185 185 184 184 186 187 187 186 185 184 189 192 189 186 187 189 191 192 192 191 187 179
254 272 263 234 232 201 189 231 238 163 118 256 252 209 204 143 123 134 124 126 172 214 313 43 111 133 274 246 227 133 175 214 236 223 210 206 200 197 206 210 194 182 189 191 194 196 192 190 192 200 208 209 212 213 216 213 201 195 192 190 188 187 187 187 186 187 187 186 188 190 190 191 191 189 190 193 191 189 188 188 190 192 192 193 192 184
264 283 277 244 239 214 195 224 218 134 123 249 259 243 228 118 120 133 132 155 166 107 333 300 104 110 264 274 63 104 184 235 241 219 202 200 203 201 203 217 214 202 201 191 187 201 203 199 204 211 216 218 221 223 220 214 206 199 194 191 191 190 189 189 188 189 191 191 190 192 192 193 194 193 192 191 191 189 187 187 188 190 191 194 195 190
265 256 251 225 212 214 231 237 189 136 176 249 266 24 27 88 112 121 134 151 115 100 233 250 178 121 260 267 127 145 212 224 224 220 210 205 205 203 194 204 223 218 207 206 198 207 215 212 216 220 219 218 222 225 222 219 213 204 193 187 190 194 194 193 191 191 192 193 192 192 193 193 192 191 190 189 189 188 187 186 187 188 191 193 194 192
262 264 249 220 216 197 210 231 189 172 186 216 309 27 26 31 51 59 104 108 83 297 247 222 180 131 139 248 193 193 220 198 191 211 224 221 216 214 201 190 214 223 204 202 201 216 226 222 225 228 226 220 218 222 222 222 221 211 199 195 197 200 201 198 194 193 193 193 194 194 194 194 192 189 187 185 185 186 187 187 187 188 190 190 190 191
292 297 280 250 241 199 181 246 250 220 146 91 79 51 19 342 9 22 358 36 82 265 273 230 143 100 111 238 222 228 238 190 175 190 198 205 214 219 216 192 199 214 207 194 183 212 236 228 218 210 207 209 208 215 218 218 215 206 202 204 203 205 207 203 199 197 195 194 196 197 196 194 193 190 188 186 185 186 187 188 188 189 190 190 190 190
308 283 272 276 260 207 166 260 306 338 13 39 39 61 66 333 360 2 319 338 170 254 271 210 105 85 207 237 220 220 227 192 180 191 186 186 200 212 217 202 195 207 208 196 182 202 227 216 189 179 181 192 200 211 216 209 200 201 206 208 209 213 214 210 205 198 196 197 198 199 198 195 193 192 190 189 188 188 188 188 188 189 190 191 191 191
310 300 293 278 263 204 148 174 284 326 313 259 209 111 110 106 54 299 288 316 215 248 260 207 99 86 282 275 228 207 204 190 184 195 186 177 187 200 210 200 187 197 207 207 198 205 218 200 182 180 181 188 199 212 216 204 196 204 213 213 212 216 218 219 214 200 198 200 197 198 200 196 193 193 192 190 190 189 189 189 190 191 190 191 192 192
248 303 286 223 229 193 158 183 181 156 191 227 181 134 127 141 162 230 222 165 198 235 284 337 65 151 208 258 234 191 180 181 175 185 174 163 177 182 190 193 181 186 197 206 210 216 220 190 180 184 187 192 201 213 219 210 202 203 210 213 212 213 216 219 219 212 207 203 195 194 198 195 192 193 192 192 191 190 189 190 192 193 192 192 193 193
204 254 248 230 211 184 178 199 158 109 26 269 147 100 132 188 165 185 185 167 166 144 334 338 350 203 211 274 326 93 130 157 140 133 140 151 177 166 172 193 188 184 187 191 199 205 201 183 180 184 190 195 201 210 215 212 207 204 207 211 212 215 217 217 221 223 219 208 197 193 194 192 191 192 191 191 191 190 191 191 192 193 194 194 193 193
205 260 268 319 222 201 187 174 147 130 155 267 102 142 230 181 137 126 249 65 91 97 309 286 274 303 318 326 353 74 133 160 137 132 146 161 174 167 180 192 184 180 180 178 181 188 190 184 184 186 191 198 203 207 210 209 209 209 210 211 211 214 214 212 215 218 219 213 202 195 192 188 187 190 191 191 192 192 193 194 194 195 195 196 196 194
190 272 292 295 248 238 200 158 167 171 151 123 154 217 235 80 95 111 118 1 49 90 267 232 196 268 297 288 297 178 181 201 197 172 158 165 172 182 205 205 185 175 171 173 176 181 184 186 193 192 194 204 211 213 208 205 208 211 214 217 215 213 210 207 208 209 210 209 204 198 190 185 186 189 191 193 193 193 194 195 196 197 197 197 198 197
179 249 292 275 246 242 184 135 236 265 188 160 184 195 136 69 307 358 105 101 56 131 254 323 323 227 204 223 221 208 210 209 207 189 168 178 184 195 221 219 191 170 166 171 171 173 175 185 199 199 198 203 213 220 207 198 206 212 216 221 220 217 211 205 201 199 200 201 199 193 186 185 187 189 190 192 194 195 196 197 197 198 198 198 198 197
171 181 285 293 296 183 40 58 224 281 304 291 341 11 124 147 175 182 143 152 141 149 193 325 345 260 226 222 195 204 212 195 187 190 187 192 191 196 208 195 180 171 169 168 162 167 177 190 200 199 201 206 212 218 206 193 203 208 207 207 205 202 187 175 169 171 180 188 187 183 183 186 189 190 189 190 193 195 198 200 201 201 202 201 199 198
166 214 255 294 325 21 320 257 189 207 260 313 1 324 280 333 107 146 93 132 130 135 166 149 316 267 247 213 187 201 208 192 181 181 191 201 192 189 191 180 174 168 166 169 169 175 190 206 209 201 202 210 212 211 201 198 200 190 183 185 189 183 160 145 144 151 162 175 176 174 180 188 189 190 191 190 192 196 198 201 204 205 205 204 203 201
176 201 207 285 332 336 249 244 200 206 198 161 164 218 220 228 77 84 325 297 120 129 160 150 183 264 258 202 188 194 188 187 180 171 183 198 180 174 183 179 166 157 166 183 187 188 197 211 213 204 199 201 201 198 194 199 194 175 165 172 180 179 167 155 148 151 159 172 175 174 181 186 184 185 191 193 194 197 199 202 205 207 208 207 206 204
165 130 130 256 251 224 250 257 216 269 158 126 162 221 168 138 106 121 193 251 59 79 102 115 137 266 263 205 183 184 172 175 174 162 163 176 171 168 174 169 149 151 177 194 199 204 208 216 216 206 196 189 188 191 193 198 193 168 156 165 167 168 168 161 151 148 153 164 175 182 188 187 185 186 189 193 198 201 203 205 207 209 211 211 209 207
105 84 73 309 299 298 304 327 18 13 53 74 319 304 118 169 115 132 171 164 108 116 107 86 125 268 271 238 173 176 165 153 158 156 150 155 170 168 159 152 145 158 185 204 214 223 226 231 231 213 194 192 191 184 178 190 195 176 162 173 181 180 172 159 149 149 155 160 171 184 190 190 190 192 194 195 198 203 206 209 210 211 213 214 213 211
64 105 98 41 1 347 341 349 357 356 23 65 291 299 276 277 65 80 116 82 83 210 163 124 203 257 275 275 148 160 145 133 153 162 150 151 167 168 152 147 157 172 191 209 221 232 236 239 242 224 203 195 189 176 166 178 189 185 177 183 193 195 185 172 162 161 166 170 174 185 194 193 190 194 198 198 198 200 203 205 208 211 213 215 216 215
119 148 115 101 105 82 344 308 307 320 324 318 318 310 300 331 39 61 116 80 93 226 156 140 202 255 289 216 174 181 154 147 171 170 149 153 162 161 154 155 169 185 197 208 215 227 241 247 256 252 234 193 154 180 188 184 189 191 190 196 202 198 188 188 188 182 182 186 187 192 197 197 195 198 202 203 202 203 203 202 203 206 209 213 217 218
104 116 128 133 153 178 192 225 246 275 330 323 323 317 309 317 352 56 94 120 175 175 181 209 195 183 232 206 199 208 182 169 182 169 150 155 159 155 157 164 179 196 201 205 214 229 245 253 261 267 265 263 116 208 216 212 209 202 201 205 207 203 194 192 194 192 189 190 191 193 195 198 203 208 212 214 214 213 211 210 208 207 208 209 213 217
99 71 166 150 169 194 192 215 243 327 332 319 323 316 306 308 328 351 287 238 157 124 258 246 187 162 206 208 200 208 197 183 189 178 162 160 161 160 160 166 183 201 202 198 212 225 235 246 255 262 264 259 224 232 233 232 234 222 215 212 209 204 200 196 194 193 190 188 190 191 192 196 202 208 215 219 220 221 220 220 219 216 213 211 212 216
110 182 224 175 205 230 221 248 296 44 344 329 328 312 302 303 309 295 267 227 155 165 236 216 175 187 209 203 201 206 197 186 188 181 162 155 157 161 161 167 184 199 198 198 214 221 222 231 238 241 247 241 229 236 236 231 236 232 220 213 207 203 202 200 199 199 199 199 197 195 198 204 206 208 212 213 215 219 221 222 222 221 218 217 217 219
71 290 254 195 221 251 262 285 2 38 7 344 330 310 296 294 292 277 271 254 198 213 216 175 177 206 213 194 204 208 192 174 168 155 147 149 156 164 167 174 189 200 198 199 211 218 218 226 233 234 235 225 218 228 235 232 233 227 216 211 207 204 202 203 205 206 208 208 206 204 207 212 214 215 217 215 213 219 220 217 217 219 219 218 217 218
19 319 300 25 37 289 286 296 28 31 26 356 323 307 304 321 336 337 320 312 307 287 177 151 169 219 240 204 203 193 142 127 137 148 154 157 163 168 174 184 192 201 206 203 205 210 215 226 236 239 236 220 210 214 222 220 209 202 206 206 207 206 203 204 204 205 208 209 208 208 209 211 214 218 223 223 220 221 220 217 216 217 218 217 215 215
19 343 330 37 47 304 295 9 30 26 31 4 320 305 318 343 343 330 318 308 308 52 92 117 155 220 236 204 176 140 134 142 155 159 158 163 171 173 181 191 194 200 205 199 193 195 202 215 225 231 231 220 207 208 214 211 202 199 200 200 206 210 208 207 207 208 211 210 208 206 205 205 207 211 220 226 224 220 217 216 216 216 215 213 210 210
11 12 338 32 53 291 295 1 51 50 29 340 282 268 296 315 313 312 307 296 278 140 135 162 195 211 201 165 148 150 159 165 167 163 162 169 179 182 187 193 196 201 201 190 185 190 196 205 214 220 223 218 208 208 211 209 206 211 214 212 213 216 216 216 215 214 214 212 210 208 203 198 198 203 214 222 224 219 215 215 217 216 215 213 212 213
311 347 289 220 145 276 291 346 42 44 1 261 241 236 262 276 288 296 292 292 293 214 173 185 193 193 168 156 167 175 178 179 175 173 171 168 176 187 193 197 196 194 192 182 181 192 197 203 211 217 219 216 212 212 210 209 213 219 223 224 223 221 223 222 219 215 212 209 211 212 206 197 197 204 211 215 216 214 212 213 217 218 216 215 215 216
283 293 269 208 167 248 296 27 31 286 239 241 262 278 273 256 239 248 270 294 321 325 193 150 161 181 175 172 180 178 177 179 170 172 175 169 174 183 188 198 196 183 178 179 182 193 199 199 206 214 215 208 204 205 202 200 206 212 212 216 220 220 221 221 217 213 208 206 210 214 207 196 196 204 210 210 209 209 210 211 213 214 214 215 215 215
237 237 234 227 209 240 348 71 196 242 253 280 300 300 294 290 278 284 302 321 357 358 4 152 165 180 178 178 179 165 159 157 154 174 184 173 175 181 178 187 189 177 175 178 180 188 195 198 201 206 206 197 189 190 192 192 196 203 201 203 211 215 215 214 214 210 205 203 206 212 209 196 194 201 208 209 209 210 211 211 212 213 215 216 217 217
209 199 194 237 243 195 189 210 238 282 307 311 305 299 292 285 275 267 281 289 326 4 357 194 180 175 165 158 148 135 124 114 127 204 216 186 182 185 175 174 178 176 177 178 181 187 192 197 202 202 196 188 186 188 188 186 189 194 194 195 201 205 205 207 211 210 207 206 210 217 218 209 202 203 207 211 213 212 213 216 219 219 218 217 218 218
208 196 187 212 227 183 199 253 306 302 278 258 261 276 277 276 269 226 184 286 310 344 346 226 185 167 151 147 143 132 116 114 150 215 229 209 197 186 167 166 174 175 172 170 173 180 187 193 197 197 190 183 186 191 188 185 187 190 192 194 194 194 198 206 212 213 211 213 218 222 224 222 212 204 205 212 216 215 216 219 223 226 224 221 222 223
215 179 155 176 202 159 172 208 228 231 243 256 273 287 294 291 283 198 83 324 303 331 343 242 183 169 155 154 150 136 129 147 191 219 221 206 197 180 165 168 173 172 170 170 170 175 183 187 188 188 185 180 181 186 186 186 190 192 196 199 195 195 204 214 219 221 219 219 222 221 220 223 218 206 203 209 215 218 219 221 224 228 226 225 227 229
12 81 117 161 202 184 169 195 233 220 239 289 296 299 303 306 339 59 320 278 286 330 344 327 187 174 160 155 153 151 161 179 198 211 206 190 181 176 167 166 171 169 166 170 173 174 177 178 176 176 179 178 176 175 178 183 189 196 203 205 202 208 219 227 231 234 231 226 225 222 217 217 217 213 211 212 214 216 218 220 222 222 222 222 223 226
359 10 110 154 179 192 180 196 258 242 244 310 306 298 305 337 44 84 227 242 284 323 332 356 35 71 149 158 160 173 197 212 205 194 180 163 168 179 170 165 169 169 165 166 170 170 169 171 173 174 177 177 172 170 172 176 184 196 208 210 209 216 229 241 245 245 242 236 229 223 220 219 218 217 218 218 217 215 216 220 223 220 219 217 214 214
350 335 339 63 115 187 174 170 263 267 303 326 318 307 317 4 87 183 219 243 306 325 340 10 32 44 83 151 206 233 246 256 191 166 162 159 168 175 162 151 154 157 157 159 163 165 165 168 172 173 174 174 172 171 172 175 181 194 208 219 223 225 234 245 247 244 240 237 230 218 216 222 222 221 221 223 222 218 217 220 223 223 223 221 218 217
339 324 316 343 359 350 66 61 41 238 300 328 335 345 14 31 205 210 218 353 348 8 14 9 7 25 53 52 341 313 318 355 68 150 163 163 163 162 154 149 150 151 153 155 161 167 165 164 169 173 174 176 176 175 176 179 185 194 208 223 233 235 235 232 229 225 222 223 223 213 210 216 220 220 219 218 215 214 214 215 216 216 217 218 217 218
5 360 322 310 334 55 74 42 207 217 275 320 350 49 31 325 232 203 122 58 29 27 28 10 347 349 20 54 34 23 24 17 19 132 156 157 156 153 153 153 154 158 159 159 164 168 163 159 163 169 173 177 179 179 181 183 186 195 209 222 231 231 219 208 200 197 198 201 207 210 211 210 208 208 207 203 202 205 207 208 208 209 209 212 214 216
15 9 295 264 282 125 165 222 248 245 276 319 4 42 359 3 24 72 85 73 51 42 39 16 346 341 354 19 27 29 28 14 15 61 131 168 166 154 156 161 160 161 163 162 164 165 161 157 158 161 167 175 178 179 183 187 190 197 207 213 213 206 197 189 190 198 200 198 199 199 197 192 186 186 192 194 198 203 204 205 208 208 207 210 214 218
356 3 348 262 289 332 190 248 309 316 325 343 351 352 1 10 13 31 55 62 65 72 66 35 349 338 346 4 14 5 353 353 9 32 63 183 187 162 157 161 160 160 160 159 161 162 157 153 154 158 164 171 176 178 182 191 199 200 197 191 189 190 189 187 193 204 208 206 201 192 178 173 173 176 186 194 200 206 208 210 210 207 207 212 215 220
344 357 355 329 331 339 298 304 335 332 318 329 333 340 355 357 352 10 48 62 73 89 95 97 38 335 340 356 6 351 337 341 352 2 49 155 201 188 166 161 161 162 162 161 161 159 154 151 154 157 160 164 168 170 171 182 194 194 186 180 183 189 192 193 195 202 208 204 198 191 183 178 175 178 185 191 195 200 206 211 210 207 210 215 216 219
329 349 344 327 333 323 280 281 303 301 276 279 314 335 340 333 331 337 358 33 51 64 80 97 103 37 356 349 350 344 337 338 336 333 335 182 196 198 180 172 165 160 160 162 161 158 155 155 156 157 157 158 162 166 164 162 169 175 175 180 191 196 196 196 197 201 205 201 196 195 195 192 189 189 192 198 202 204 204 205 207 209 211 212 213 217
299 320 314 312 324 313 291 299 323 333 331 312 288 293 287 289 305 314 319 357 46 46 36 34 40 51 37 350 332 336 333 323 314 313 311 245 199 197 193 181 169 161 161 163 163 162 161 160 159 159 159 159 161 166 166 159 160 167 171 177 187 197 201 201 198 197 201 202 201 201 203 205 206 206 206 211 216 219 218 214 213 214 214 213 215 219
287 288 288 315 322 302 284 290 301 306 300 281 267 264 270 284 305 308 305 323 36 77 63 36 355 351 20 348 318 322 314 307 306 307 301 259 206 199 197 182 168 162 162 163 164 165 165 164 162 161 161 162 164 168 168 166 167 173 179 181 182 188 195 196 191 189 195 200 205 207 208 210 213 215 217 218 219 219 222 224 224 223 225 226 228 231
256 269 291 290 276 266 273 284 281 251 239 257 263 259 265 285 304 301 295 296 284 184 135 117 316 312 320 307 296 295 288 293 301 302 291 262 213 196 192 182 172 166 165 166 165 163 163 163 163 163 163 165 169 172 172 171 173 178 188 196 193 185 184 186 187 186 189 199 209 214 215 216 218 219 221 222 219 216 218 222 226 230 238 243 244 245
Height
769 783 790 788 785 780 777 776 775 773 774 779 783 784 782 783 784 776 771 766 763 779 784 778 782 782 781 779 774 774 774 775 777 776 777 777 776 776 776 776 774 773 771 770 773 774 774 775 779 784 790 793 788 784 785 786 787 788 790 793 795 796 798 800 801 803 805 806 807 808 810 811 812 814 815 816 818 819 821 822 823 825 826 828 830 832
772 789 789 779 776 771 770 770 770 772 774 778 782 783 780 776 775 770 767 765 763 775 779 776 784 784 779 779 775 774 777 777 776 776 778 777 777 777 776 776 774 772 771 770 773 773 774 775 776 776 780 789 792 786 783 783 784 785 787 790 792 794 796 797 799 801 803 804 805 806 807 809 811 813 814 815 816 818 820 822 823 824 825 827 829 830
786 790 779 769 768 768 768 767 769 774 775 778 778 779 780 772 771 770 766 765 765 773 775 775 785 785 779 779 777 775 776 775 773 772 773 773 776 777 775 775 774 773 773 772 772 773 773 774 776 776 777 782 789 791 786 782 783 784 784 787 789 792 794 796 798 800 801 803 804 806 807 808 810 812 813 815 816 818 819 821 822 823 825 826 827 829
794 782 765 761 764 767 770 767 769 775 774 774 773 777 777 769 771 776 771 769 768 770 773 773 783 788 784 782 778 776 774 772 772 770 769 769 771 772 770 771 772 773 774 773 772 772 772 772 774 776 777 778 782 789 788 783 782 781 782 784 787 789 792 794 797 799 801 803 805 807 808 809 810 812 814 816 817 818 819 821 822 823 824 825 826 828
785 766 753 758 763 767 772 769 770 776 776 769 765 770 771 764 767 771 770 771 771 772 770 772 788 795 789 788 784 777 775 773 771 771 770 769 767 768 767 768 770 771 771 772 772 771 770 770 772 774 777 777 777 780 783 781 779 779 781 783 785 787 790 793 796 799 802 804 806 808 809 811 812 813 814 815 816 817 818 819 821 822 823 824 826 827
776 756 751 760 763 765 771 772 768 770 774 771 761 758 760 759 762 766 768 775 784 787 773 772 800 808 793 790 789 781 779 776 773 772 771 769 768 769 768 768 770 770 770 769 769 769 769 769 772 774 775 777 776 775 777 778 778 779 782 783 784 786 789 792 795 798 801 803 805 807 808 809 810 811 812 812 813 815 816 818 819 821 823 824 825 827
764 749 750 759 761 763 770 770 761 758 770 776 759 749 752 753 759 766 771 780 791 792 776 770 796 812 800 793 789 783 781 778 776 775 772 770 771 770 769 768 770 771 770 769 768 768 769 770 771 773 774 775 775 774 774 776 778 780 782 783 784 787 789 792 794 797 799 802 804 806 806 807 808 809 810 811 812 814 815 817 819 821 822 823 825 826
755 751 753 754 756 761 766 765 754 749 768 774 753 745 751 751 759 767 770 777 782 781 779 773 781 803 807 795 788 786 785 783 780 780 776 773 772 771 769 768 768 770 768 768 769 768 769 770 771 771 773 773 772 772 773 775 777 779 780 782 783 785 788 790 793 795 797 799 802 804 806 807 808 808 809 811 812 814 815 817 818 820 821 823 824 826
752 757 756 752 756 761 758 753 744 746 763 761 743 744 749 749 757 762 765 773 776 781 790 784 778 800 811 795 787 789 790 789 785 780 779 775 773 771 770 769 767 767 766 766 768 768 768 769 769 770 771 772 772 771 772 773 775 777 778 781 783 785 786 787 789 792 794 796 798 801 803 805 807 808 809 811 812 814 815 816 818 819 821 822 824 825
752 750 746 747 755 756 748 741 738 746 756 747 738 743 747 749 754 758 764 770 776 786 793 787 780 798 812 798 790 795 793 789 784 779 777 774 771 770 769 769 767 766 767 767 767 768 768 768 768 769 769 771 771 770 771 772 774 776 778 782 786 787 786 785 785 787 790 793 795 797 800 802 805 807 808 810 812 814 815 816 817 818 820 821 823 824
747 737 736 741 744 742 738 737 736 740 743 739 741 747 750 755 756 761 766 768 782 792 787 782 775 786 809 803 791 790 783 777 779 779 777 773 770 769 768 768 767 766 767 767 767 767 767 768 768 768 767 768 769 769 770 772 774 776 779 783 785 786 785 785 786 786 788 790 793 795 797 799 802 804 806 808 810 812 813 815 816 817 819 820 822 823
747 743 741 735 730 730 735 738 736 733 734 740 750 756 762 768 767 772 775 774 793 799 784 779 773 779 804 801 785 779 769 766 773 775 774 773 771 768 767 768 767 765 765 765 767 767 766 767 766 766 765 765 766 767 768 771 773 775 777 779 780 782 783 784 786 787 787 790 792 794 795 797 799 801 803 805 807 809 811 813 815 816 818 820 821 822
755 750 743 735 727 726 738 747 744 738 737 744 755 764 778 789 790 794 794 793 803 801 785 779 775 783 797 787 772 770 766 765 767 766 768 770 770 768 766 767 766 764 764 764 767 767 766 765 764 764 764 764 765 765 767 769 772 772 773 774 777 780 781 782 783 786 787 788 790 792 794 795 797 799 801 803 805 807 809 811 813 814 816 818 819 821
769 754 741 741 735 724 734 751 757 754 748 750 758 767 782 797 809 816 811 807 809 799 783 775 777 792 798 779 765 765 764 763 762 761 763 764 765 766 765 765 765 765 764 764 765 766 765 764 763 762 762 763 764 764 766 768 770 770 770 772 775 778 779 780 781 783 782 783 785 788 791 793 795 797 799 802 803 805 807 809 811 813 814 816 817 819
786 777 750 744 741 728 731 740 745 748 750 751 749 758 773 783 798 810 807 807 809 798 786 779 784 798 797 777 762 760 760 760 760 761 761 762 763 763 763 763 764 765 765 764 764 764 763 761 761 761 761 761 762 762 764 766 767 768 767 769 772 774 776 777 780 780 778 779 782 784 787 790 793 796 798 800 802 804 806 808 810 812 813 815 816 818
783 779 745 732 730 725 731 729 726 740 755 752 744 757 770 766 771 785 788 790 796 799 795 790 791 791 781 768 760 761 763 761 762 763 762 764 764 763 764 764 764 765 764 763 763 762 760 759 758 758 758 759 760 761 762 764 765 766 765 766 767 769 771 773 776 778 777 778 780 782 784 787 790 794 796 799 801 803 805 806 808 810 812 814 815 817
775 767 736 730 731 722 725 725 721 736 753 753 753 761 756 745 753 774 784 781 785 803 804 796 796 789 779 774 765 764 767 765 765 765 764 765 765 764 765 764 764 763 762 761 760 759 757 756 756 755 756 757 758 759 760 762 763 764 763 763 764 765 766 768 769 772 775 778 779 781 784 786 789 792 794 797 799 802 804 806 807 809 811 813 814 816
765 766 740 732 740 726 715 720 721 722 733 749 760 752 739 741 750 762 783 790 794 811 809 798 800 798 794 789 774 769 772 770 768 767 766 767 766 766 765 763 763 760 758 758 756 756 755 754 754 754 754 756 756 758 759 760 762 763 763 762 762 763 763 763 764 768 773 776 778 781 783 785 787 790 792 795 797 800 802 804 806 808 810 812 813 815
753 770 751 729 736 729 714 725 737 727 721 733 741 733 738 762 767 764 780 793 800 815 813 802 802 799 794 787 776 774 774 770 770 769 767 767 765 766 764 762 762 759 758 758 756 756 755 753 754 753 753 754 755 757 758 760 762 762 763 762 762 763 761 761 762 764 770 774 776 780 782 784 786 788 790 793 796 798 800 803 804 806 808 810 812 814
745 769 764 734 727 730 726 737 752 745 729 726 730 732 739 755 763 765 772 778 791 811 816 811 809 797 783 774 769 770 768 767 769 769 767 765 763 763 762 760 760 759 759 758 757 756 754 753 753 751 752 752 753 755 757 759 761 761 762 763 762 763 762 761 761 763 768 773 775 778 780 783 786 787 789 791 794 796 798 801 802 804 807 809 811 812
743 761 767 746 730 737 745 744 745 746 741 739 743 747 746 746 751 758 764 766 778 800 811 814 814 795 770 760 760 760 761 761 763 764 765 763 761 761 760 758 758 758 759 757 756 756 754 752 751 750 751 751 752 755 757 759 760 760 761 762 762 763 763 762 761 761 765 770 774 777 779 782 786 789 790 790 792 794 796 799 801 803 805 807 809 810
745 754 761 756 746 749 748 734 729 734 736 739 744 746 748 749 754 767 777 770 767 782 794 802 807 787 759 752 752 752 755 756 757 760 761 760 759 759 758 757 757 757 757 756 755 754 752 750 749 749 751 752 754 756 757 759 760 759 760 761 762 763 762 762 760 759 761 766 771 775 777 780 784 787 790 790 791 793 795 797 799 801 803 805 807 808
734 745 755 758 752 747 739 727 726 728 725 729 736 738 741 745 753 769 781 774 769 778 782 789 798 780 753 747 749 748 751 752 753 756 758 759 758 757 757 757 757 757 756 754 753 752 750 749 748 749 751 753 754 755 757 760 760 759 758 759 761 762 762 762 761 760 761 764 769 773 776 779 782 785 787 789 790 792 793 796 798 800 802 803 805 806
730 746 757 760 752 741 731 725 724 723 724 735 739 736 739 743 745 753 761 763 772 781 781 790 800 780 752 746 747 748 749 750 752 753 756 759 759 757 757 757 757 756 754 754 752 750 750 749 748 750 752 753 754 755 757 758 759 758 757 758 759 760 761 762 762 762 762 763 766 771 775 778 781 783 785 787 788 790 792 794 796 799 800 802 803 804
738 752 759 769 774 766 756 750 744 736 735 743 744 738 738 738 739 746 750 756 772 778 774 785 795 776 754 748 748 747 749 750 752 752 753 757 758 758 758 758 757 756 754 753 752 750 750 749 749 750 751 753 754 756 757 757 757 757 756 757 757 758 761 762 762 762 763 764 766 770 773 776 779 782 784 785 787 789 791 793 795 797 798 800 801 802
737 750 753 770 789 793 788 781 767 755 748 746 745 741 737 734 738 747 754 764 775 774 769 775 779 769 758 754 751 750 751 752 753 753 753 754 756 757 758 758 757 755 754 753 752 751 750 749 749 749 750 753 754 755 756 755 755 756 756 757 757 758 759 761 762 763 763 765 767 770 773 776 778 781 783 784 786 788 790 792 794 795 796 797 799 800
736 745 747 758 771 776 776 768 755 753 755 754 751 746 741 736 736 745 759 767 768 770 772 766 761 763 764 760 755 753 752 752 752 753 754 755 755 756 756 757 755 754 753 753 753 753 751 749 749 748 749 752 752 753 753 754 754 755 756 757 758 758 759 760 762 763 764 765 767 770 773 776 779 781 782 783 785 787 789 790 791 793 794 796 797 799
739 748 747 749 753 753 754 752 747 749 754 754 752 750 746 741 740 748 757 757 757 769 775 763 755 760 761 757 755 753 750 751 751 751 752 754 754 754 754 755 754 753 754 754 754 753 751 750 749 748 749 750 751 751 752 753 754 754 755 757 757 758 759 760 761 763 765 766 768 770 773 775 776 777 778 779 782 785 786 787 789 790 792 794 796 797
743 750 745 744 747 745 743 744 744 746 748 749 750 750 748 746 747 750 750 746 749 759 760 755 756 755 749 751 752 746 744 745 746 747 748 750 752 752 753 754 754 753 754 754 753 752 751 751 749 748 749 749 750 750 751 752 753 753 755 756 757 758 759 760 761 762 764 766 768 770 771 772 772 773 773 775 778 781 783 784 786 788 790 791 793 795
744 751 744 742 746 744 740 741 741 744 747 748 748 748 748 747 746 746 745 740 741 746 743 745 753 747 739 743 742 736 736 739 741 745 746 748 751 751 752 753 752 752 752 752 752 751 750 750 748 748 748 748 749 750 750 752 752 753 755 755 756 757 758 759 760 761 763 765 767 769 769 770 771 772 773 774 776 777 779 782 783 785 787 788 790 792
746 754 747 744 751 751 744 741 740 744 750 753 751 747 744 745 743 743 743 739 738 745 746 747 754 748 736 734 734 733 736 739 743 746 746 747 749 749 751 751 750 751 751 750 751 751 750 749 748 748 748 748 749 750 750 751 752 753 754 755 756 756 757 758 759 760 762 764 766 768 768 769 770 770 771 772 774 775 777 779 780 781 784 785 787 789
749 756 750 749 762 762 748 744 746 745 749 755 753 748 744 746 747 745 743 740 739 747 753 756 759 749 734 731 735 736 738 740 743 744 744 746 747 747 748 748 747 749 749 749 750 751 750 749 748 747 747 748 749 750 750 751 752 753 754 755 755 756 757 758 758 760 762 763 766 767 767 769 770 770 770 769 771 773 775 777 778 779 782 783 785 787
751 757 756 758 770 766 753 751 750 751 763 767 754 745 743 744 745 744 741 736 734 740 748 751 747 737 729 732 737 739 740 742 742 741 742 744 744 744 744 743 745 745 745 747 749 749 749 747 745 745 745 746 748 749 749 751 752 753 753 754 755 755 756 757 758 760 761 763 765 765 767 770 770 770 769 768 769 772 773 775 777 778 780 781 783 785
750 756 759 760 768 769 758 751 754 768 782 771 743 732 737 739 741 744 741 735 733 734 734 732 729 728 729 732 734 737 738 737 736 735 734 736 739 741 741 740 742 742 743 745 746 746 746 745 744 744 745 746 747 748 749 751 751 752 753 753 754 754 755 756 757 759 760 762 763 764 766 769 770 770 769 769 770 771 773 774 776 776 778 780 781 783
753 756 758 756 762 767 758 757 776 788 776 749 730 726 729 731 734 737 737 734 734 732 728 724 725 727 729 729 728 729 731 730 731 731 729 729 732 735 737 739 739 740 742 744 744 744 744 744 744 744 744 745 746 747 749 750 751 752 752 752 753 754 755 756 757 759 760 761 762 763 765 768 769 769 770 770 771 772 773 774 775 776 777 778 779 781
751 754 756 755 760 765 764 772 787 780 753 736 732 728 725 728 733 737 741 737 733 733 731 726 725 727 729 728 726 726 728 729 731 730 727 727 727 729 733 736 736 737 739 740 741 742 742 742 743 743 743 745 746 747 748 750 751 752 752 752 753 754 755 757 758 758 760 761 761 762 764 767 768 769 769 770 771 772 773 774 774 775 776 777 777 778
742 749 753 758 761 764 770 774 771 764 755 747 739 732 730 734 735 738 745 741 732 731 732 729 727 728 729 728 728 728 729 733 738 736 728 725 724 725 727 729 731 733 734 735 737 738 739 741 741 742 744 745 746 747 748 749 751 751 752 753 753 755 756 757 757 758 759 760 761 762 763 765 766 767 768 769 770 771 772 772 773 774 775 776 776 777
734 741 747 757 760 759 767 774 772 776 774 756 739 731 727 729 727 727 737 743 734 728 730 728 726 727 727 728 731 730 732 741 748 741 729 724 724 723 725 726 727 729 731 733 736 738 739 741 741 742 744 745 746 747 748 749 751 751 752 753 754 755 756 756 757 758 759 760 761 761 762 763 765 766 767 768 769 770 770 771 772 772 773 774 775 775
732 736 740 752 760 759 765 776 779 779 768 749 738 731 724 725 723 721 739 752 738 726 727 727 724 723 724 726 730 731 738 749 751 739 725 722 722 722 724 726 726 728 730 732 734 736 738 740 741 743 744 745 746 747 748 749 750 750 751 752 754 755 756 756 757 757 758 759 760 761 762 763 764 765 766 767 768 769 769 770 771 771 772 773 774 775
738 741 744 754 760 759 763 770 769 763 754 744 738 732 725 721 718 731 760 764 738 725 727 726 723 722 721 723 727 731 737 742 739 728 719 718 720 720 721 723 725 727 730 732 733 735 737 739 741 743 744 745 746 747 748 749 749 750 751 752 754 755 755 755 756 757 758 759 759 760 761 762 763 764 765 767 767 768 769 770 770 771 771 772 773 774
746 746 748 753 757 757 763 769 766 756 748 743 737 730 724 722 728 751 768 755 732 728 729 725 724 723 722 724 726 727 726 722 717 714 713 715 719 719 718 720 723 725 728 731 733 734 736 739 740 741 743 745 746 747 748 748 749 750 750 751 753 754 754 755 756 757 758 758 758 760 760 761 763 763 765 766 767 768 768 769 770 770 771 772 773 774
761 756 754 755 758 759 760 765 768 762 748 738 735 729 725 733 748 757 750 736 732 733 729 725 726 723 722 725 725 723 720 714 711 712 713 715 718 718 719 721 723 726 729 731 733 734 736 738 740 741 743 745 746 747 747 748 749 749 750 751 752 753 754 755 756 757 758 758 759 759 760 760 761 762 763 765 766 767 768 768 769 770 770 771 772 773
769 768 766 763 762 763 764 768 776 774 752 735 735 735 735 742 748 743 734 733 734 731 728 729 728 724 724 725 723 722 719 715 714 714 713 715 716 717 719 721 723 726 728 730 733 734 735 737 739 741 742 744 746 747 747 748 749 749 749 750 750 752 754 755 756 757 758 758 759 759 760 760 761 761 763 764 764 766 767 768 769 769 770 771 772 772
769 772 776 771 763 768 776 776 773 767 751 739 741 744 743 741 737 733 734 735 733 730 732 734 732 729 727 724 722 721 720 718 718 716 715 717 717 717 719 721 722 725 726 728 731 733 734 736 738 740 742 744 745 747 747 748 748 749 749 749 750 752 753 754 756 757 757 759 759 760 760 761 761 762 762 763 764 765 766 767 768 769 770 771 771 772
772 770 774 771 763 764 771 767 759 754 748 743 741 741 740 736 731 731 733 733 734 734 735 737 739 734 728 725 723 723 722 722 721 719 718 719 717 717 719 720 721 724 725 728 731 732 734 735 736 739 742 743 745 746 747 747 748 748 748 749 750 752 753 754 755 756 757 759 759 760 761 761 761 762 762 763 764 764 765 766 767 768 769 770 771 771
767 763 765 766 762 759 760 757 753 751 749 745 741 739 737 736 732 730 730 732 734 734 734 740 744 738 730 728 727 726 726 724 722 720 720 720 719 719 719 720 722 724 725 728 730 732 733 734 736 739 741 743 744 745 746 747 748 748 748 749 750 752 753 754 755 756 757 758 759 760 761 761 762 763 763 764 765 765 766 766 767 768 769 769 770 770
766 765 765 766 765 766 764 758 752 752 751 749 746 741 737 737 735 732 731 732 731 730 732 737 742 739 734 730 730 730 728 724 723 723 721 721 721 721 720 721 722 723 725 727 729 730 732 734 736 738 740 742 744 744 745 746 747 747 749 750 751 752 753 754 755 756 756 757 759 760 761 761 762 763 764 764 765 766 766 767 767 768 769 769 769 770
772 769 770 770 769 769 766 758 751 750 750 750 750 748 744 743 740 735 732 731 729 728 729 731 734 735 731 729 730 731 728 726 725 725 723 722 722 721 720 720 721 722 724 726 727 729 730 732 735 737 739 741 742 743 745 745 746 748 749 749 751 752 753 754 755 755 756 757 758 759 760 761 762 763 764 765 765 766 767 767 768 769 769 769 770 770
773 772 773 773 772 770 765 758 753 753 752 750 751 750 749 747 743 738 734 731 729 729 728 728 729 730 729 730 731 731 730 728 726 724 724 723 721 720 719 719 719 721 723 724 726 727 728 731 733 734 736 739 741 743 744 745 746 747 748 749 750 751 752 754 754 755 756 757 758 759 760 761 762 763 764 765 765 766 767 767 768 769 769 769 770 770
773 775 773 774 778 777 769 761 757 759 758 753 747 746 745 743 741 739 735 732 730 730 730 730 730 729 729 730 731 731 731 728 723 722 723 722 719 718 718 718 718 720 721 723 725 726 728 729 731 732 735 738 740 742 744 745 746 747 748 749 750 750 751 753 754 755 756 757 758 759 760 761 762 763 763 764 765 766 766 767 768 768 769 769 770 770
773 774 771 774 778 774 765 758 756 757 755 749 743 743 741 738 737 738 735 732 731 729 728 730 732 731 730 729 728 729 729 726 722 721 720 718 717 716 716 717 717 717 719 722 724 726 728 730 731 732 734 737 739 742 743 745 746 747 748 748 749 750 751 752 753 755 756 756 757 759 759 761 762 762 763 764 764 765 766 767 767 768 768 769 769 769